Weather observations for the past three days for
Eureka, Skelton Airport
Imperial (Metric)
Date Time (akdt) Wind (mph) Vis. (mi.) Weather Sky Cond. Temperature (ºF) Relative Humidity Wind Chill (°F) Heat Index (°F) Pressure Precipitation (in)
Air Dwpt 6 hour altimeter (in) sea level (mb) 1 hr 3 hr 6 hr
Max. Min.
13 04:56 Calm 10.00 Overcast OVC100 44.1 37 76% 29.77 1009.8
13 03:56 W 5 10.00 Overcast OVC100 46 37 52 46 71% 44 29.78 1010.0
13 02:56 SW 6 10.00 Overcast OVC100 46 37.9 73% 44 29.79 1010.0
13 01:56 SW 5 10.00 Overcast OVC100 46.9 39 74% 45 29.79 1010.2
13 00:56 SW 6 10.00 Overcast OVC095 46.9 37.9 71% 45 29.79 1010.1
12 23:56 SW 7 10.00 Overcast OVC095 48 37 66% 45 29.78 1010.1
12 22:56 SW 6 10.00 Overcast OVC100 50 37.9 63% 48 29.79 1010.1
12 21:56 SW 6 10.00 Overcast OVC070 52 37.9 61 52 59% 29.78 1010.1
12 20:56 SW 3 10.00 Overcast OVC100 54 37.9 55% 29.79 1010.4
12 19:56 S 7 10.00 Fair CLR 55.9 37 49% 29.8 1010.8
12 18:56 S 6 10.00 Fair CLR 57.9 35.1 42% 29.81 1010.9
12 17:56 SE 10 10.00 A Few Clouds FEW055 60.1 35.1 39% 29.81 1011.2
12 16:56 SE 9 10.00 A Few Clouds FEW060 60.1 35.1 39% 29.83 1011.7
12 15:56 S 9 10.00 Fair CLR 60.1 35.1 62.1 53.1 39% 29.84 1012.0
12 14:56 S 9 10.00 Mostly Cloudy BKN060 61 35.1 38% 29.85 1012.3
12 13:56 Vrbl 5 10.00 A Few Clouds FEW060 61 34 36% 29.86 1012.8
12 12:56 Vrbl 5 10.00 Fair CLR 59 35.1 41% 29.88 1013.6
12 11:56 E 3 10.00 Fair CLR 57.9 37 46% 29.9 1014.2
12 10:56 Vrbl 5 10.00 Fair CLR 55.9 37 49% 29.92 1015.0
12 09:56 NE 5 10.00 Fair CLR 53.1 37.9 53.1 42.1 57% 29.93 1015.3
12 08:56 NE 6 10.00 Fair CLR 51.1 39 64% 29.94 1015.7
12 07:56 Calm 10.00 Fair CLR 46 39 77% 29.96 1016.1
12 06:56 Calm 10.00 Fair CLR 45 39 80% 29.96 1016.3
12 05:56 NE 5 10.00 Fair CLR 43 37.9 82% 41 29.97 1016.8
12 04:56 NW 3 10.00 Fair CLR 43 37.9 82% 29.98 1017.1
12 03:56 Calm 10.00 Fair CLR 44.1 39 50 43 83% 29.98 1017.1
12 02:56 SW 5 10.00 Fair CLR 44.1 37.9 79% 42 29.98 1017.2
12 01:56 SW 5 10.00 Partly Cloudy SCT075 45 39 80% 43 29.98 1017.0
12 00:56 SW 5 10.00 Mostly Cloudy BKN085 46.9 37 69% 45 29.98 1017.0
11 23:56 W 9 10.00 Mostly Cloudy BKN065 48 37.9 68% 44 29.98 1017.3
11 22:56 SW 6 10.00 Fair CLR 48 39.9 74% 46 29.97 1016.9
11 21:56 SW 7 10.00 Mostly Cloudy FEW046 BKN100 50 37.9 61 50 63% 48 29.97 1016.7
11 20:56 SW 6 10.00 Overcast SCT050 BKN060 OVC100 53.1 39.9 61% 29.95 1016.0
11 19:56 NW 5 10.00 Overcast SCT050 BKN065 OVC085 57.9 39 50% 29.94 1015.4
11 18:56 S 10 10.00 Mostly Cloudy SCT055 BKN070 BKN080 59 39 48% 29.93 1015.3
11 17:56 Vrbl 3 10.00 A Few Clouds FEW120 59 30 33% 29.93 1015.4
11 16:56 SE 8 10.00 Fair CLR 59 33.1 38% 29.94 1015.4
11 15:56 Vrbl 3 10.00 Mostly Cloudy BKN060 59 34 60.1 50 39% 29.93 1015.3
11 14:56 E 8 10.00 Fair CLR 57.9 35.1 42% 29.94 1015.4
11 13:56 E 7 10.00 Fair CLR 57.9 36 44% 29.94 1015.5
11 12:56 Vrbl 7 10.00 Fair CLR 55.9 39.9 55% 29.94 1015.4
11 11:56 N 7 10.00 Partly Cloudy FEW049 SCT070 52 42.1 69% 29.94 1016.0
11 10:56 N 5 10.00 Light Rain FEW031 SCT046 OVC060 51.1 43 74% 29.93 1015.6
11 09:56 Vrbl 5 10.00 Overcast BKN021 BKN037 OVC046 52 44.1 52 45 75% 29.93 1015.2
11 08:56 NE 6 10.00 Overcast FEW023 OVC085 50 44.1 80% 48 29.92 1015.0
11 07:56 N 5 10.00 Overcast FEW019 OVC090 48.9 44.1 83% 48 29.92 1014.8
11 06:56 Calm 10.00 Overcast BKN022 OVC090 46 42.1 86% 29.9 1014.3
11 05:56 SW 6 10.00 Overcast FEW049 OVC090 45 41 86% 42 29.89 1013.8
11 04:56 SW 5 10.00 Overcast FEW026 BKN037 OVC044 45 42.1 90% 43 29.88 1013.4
11 03:56 S 7 10.00 Overcast BKN037 BKN060 OVC075 45 41 51.1 45 86% 42 29.87 1013.0 0.04
11 02:56 W 6 10.00 Light Rain OVC037 46.9 43 86% 45 29.86 1012.8 0.04
11 01:56 SW 5 10.00 Overcast BKN035 OVC042 46.9 39.9 77% 45 29.85 1012.2
11 00:56 SW 6 10.00 Overcast BKN048 OVC070 46.9 39.9 77% 45 29.83 1011.6
10 23:56 SW 8 10.00 Overcast BKN048 OVC065 48 39.9 74% 45 29.82 1011.4
10 22:56 S 10 10.00 Overcast OVC100 48.9 39.9 71% 45 29.79 1010.4
10 21:56 S 9 10.00 Overcast FEW075 OVC090 51.1 41 63 51.1 69% 29.78 1010.1
10 20:56 S 7 10.00 A Few Clouds FEW085 53.1 42.1 66% 29.76 1009.5
10 19:56 SW 10 10.00 Mostly Cloudy BKN085 BKN110 55 41 59% 29.75 1009.1
10 18:56 SW 7 10.00 A Few Clouds FEW055 57.9 41 53% 29.74 1008.9
10 17:56 SW 9 10.00 Overcast BKN060 BKN070 OVC100 60.1 39.9 48% 29.73 1008.3
10 16:56 E 6 10.00 Overcast OVC080 60.1 37 42% 29.73 1008.2
10 15:56 Calm 10.00 Mostly Cloudy SCT060 BKN085 61 37 62.1 51.1 41% 29.72 1007.9
10 14:56 NE 6 10.00 Mostly Cloudy BKN060 BKN075 59 37 44% 29.73 1008.1
10 13:56 NE 5 10.00 Partly Cloudy SCT046 57.9 37.9 48% 29.72 1008.0
10 12:56 Vrbl 6 10.00 Partly Cloudy SCT040 57.9 39 50% 29.72 1007.9
10 11:56 N 5 10.00 Overcast OVC040 54 39.9 59% 29.72 1008.2
10 10:56 Vrbl 5 10.00 Mostly Cloudy BKN030 BKN035 54 39.9 59% 29.73 1008.4
10 09:56 NE 3 10.00 A Few Clouds FEW018 51.1 42.1 51.1 44.1 71% 29.74 1008.5
10 08:56 E 3 10.00 A Few Clouds FEW016 48.9 42.1 77% 29.73 1008.2
10 07:56 Calm 10.00 Fair CLR 46.9 41 80% 29.72 1008.1
10 06:56 Calm 10.00 Fair CLR 44.1 41 89% 29.73 1008.2
10 05:56 W 3 10.00 A Few Clouds FEW100 44.1 42.1 93% 29.73 1008.4
Date Time (akdt) Wind (mph) Vis. (mi.) Weather Sky Cond. Air Dwpt Max. Min. Relative Humidity Wind Chill (°F) Heat Index (°F) altimeter (in) sea level (mb) 1 hr 3 hr 6 hr
6 hour
Temperature (ºF) Pressure Precipitation (in)